Theta_e
293 293 293 293 293 293 293 293 294 295 295 295 294 294 292 291 288 285 284 284 284 286 287 285 286 289 289 289 290 289 289 287 286 284 286 287 287 287 287 287 287 289 290 290 290 289 289 290 290 291 291 292 292 292 293 293 293 293 293 293 294 295 296 296 296 296 296 297 297 297 297 297 298 298
292 292 292 292 291 292 292 292 293 293 293 293 293 293 293 293 289 288 285 285 286 286 288 287 285 287 287 289 289 288 288 288 285 285 286 287 286 287 286 286 287 288 289 290 289 289 289 289 290 290 291 291 291 292 292 292 292 293 293 293 294 295 295 296 296 296 296 296 297 297 297 297 298 298
291 291 290 291 291 291 291 291 292 292 292 292 292 292 293 292 291 290 289 287 288 289 286 287 287 286 287 288 287 287 287 287 286 287 286 286 287 286 285 285 286 287 288 289 288 289 289 289 289 290 290 291 291 292 292 292 291 292 292 293 294 294 295 295 294 295 295 295 296 296 296 296 297 297
291 290 290 290 290 291 290 290 291 291 291 291 291 291 291 291 291 290 289 288 287 289 287 287 287 287 286 287 285 285 286 285 286 286 286 286 285 282 282 284 285 286 287 288 288 288 289 289 289 290 290 290 291 291 291 291 291 291 291 293 293 294 293 293 294 294 294 294 294 295 295 295 296 296
290 290 289 289 290 290 289 289 290 290 290 290 290 290 290 290 290 290 289 287 286 285 287 287 286 286 286 285 285 284 284 282 283 285 285 284 283 283 283 284 285 286 286 287 287 288 288 289 290 290 290 290 290 290 290 290 290 291 291 292 292 293 293 293 293 293 293 293 293 294 294 294 295 295
290 290 289 289 289 289 289 289 289 289 289 289 288 288 289 289 289 290 289 288 287 282 284 285 285 285 286 283 285 283 283 282 282 281 282 283 282 282 282 283 284 285 286 286 286 287 288 289 290 290 290 290 290 290 290 290 290 291 291 291 291 291 291 291 292 291 291 292 293 293 293 293 294 294
289 289 288 288 288 289 288 288 288 288 288 288 288 287 288 288 288 288 289 287 286 284 282 284 283 283 284 283 283 284 284 283 282 281 281 281 282 283 282 282 283 285 286 286 286 287 287 288 289 290 290 290 290 289 289 290 290 290 290 290 290 290 290 290 290 290 290 291 292 292 292 293 293 294
288 288 287 288 288 288 287 287 287 287 288 287 287 287 287 287 287 287 287 287 286 285 282 283 282 283 282 283 284 284 284 283 282 282 282 282 282 282 283 282 282 284 287 287 287 287 287 288 289 289 289 289 289 289 289 289 289 289 289 289 289 289 289 289 288 288 289 290 291 291 291 292 292 292
288 288 287 287 287 287 286 286 286 286 286 287 286 286 286 286 287 286 286 286 286 284 283 282 282 283 282 283 283 283 281 281 281 281 281 281 281 281 282 282 283 284 286 286 286 286 287 287 288 288 289 289 289 288 288 289 289 288 288 288 288 288 288 287 287 288 288 289 289 290 291 292 292 292
288 288 287 287 287 286 286 286 286 286 285 286 285 285 285 286 285 285 284 285 284 284 283 282 280 281 280 280 281 282 281 280 279 279 280 280 281 281 281 281 283 283 283 283 283 284 285 286 287 287 288 288 288 288 288 288 288 288 287 287 286 286 286 287 287 288 288 289 289 289 290 290 291 291
288 288 287 287 287 286 286 286 286 285 285 285 284 285 285 285 284 284 284 283 283 283 282 281 281 280 281 281 279 280 281 280 280 278 278 278 280 281 280 280 282 282 282 283 284 284 283 283 284 285 286 287 287 287 287 287 287 287 286 286 286 285 286 286 286 287 288 288 288 289 289 289 290 290
287 287 287 287 287 287 287 286 286 286 285 285 284 284 284 284 284 283 283 283 282 282 282 281 280 280 279 279 280 280 279 278 279 280 279 277 278 279 280 280 281 281 281 281 281 283 284 284 285 285 286 286 287 286 286 286 286 285 285 285 285 285 285 286 286 287 287 287 288 288 288 289 289 289
287 287 287 287 287 287 286 287 287 287 287 285 284 284 284 284 283 283 283 283 282 282 282 281 280 279 278 278 278 277 277 277 277 279 280 279 279 280 279 280 282 282 280 280 281 281 281 280 280 281 281 282 284 284 284 283 283 284 284 284 285 285 285 286 286 286 287 287 287 288 288 288 288 288
286 286 286 287 286 286 286 286 287 287 288 287 286 285 284 284 283 283 283 283 282 282 281 282 280 279 278 278 278 277 278 279 279 279 279 278 280 280 279 280 280 282 281 280 279 280 282 280 280 281 280 281 282 280 281 281 282 283 284 284 285 285 285 286 286 286 286 287 287 287 287 287 287 288
286 286 286 286 286 285 285 285 286 287 288 287 288 287 287 286 284 283 282 282 283 282 281 282 281 280 279 279 279 279 278 279 278 279 279 279 280 278 277 276 279 281 280 279 279 280 282 281 279 279 279 279 280 280 280 283 283 283 284 284 285 285 285 285 286 286 286 286 287 287 287 287 287 287
285 285 286 286 286 285 285 285 285 286 287 287 287 287 287 287 287 287 284 283 282 282 282 281 281 281 280 280 279 279 279 278 279 279 279 279 279 278 277 277 277 279 281 279 278 278 280 280 278 277 278 279 279 280 281 283 283 284 285 285 285 285 285 285 285 285 286 286 286 286 286 287 287 287
285 285 285 285 285 286 285 285 284 284 284 286 287 287 287 287 287 288 288 288 285 284 283 282 282 282 281 280 279 280 280 281 278 280 279 279 279 279 278 279 278 279 281 279 278 277 278 278 277 276 278 279 279 280 282 283 283 284 284 284 284 284 284 284 285 285 285 286 286 286 286 286 286 286
285 285 285 284 284 285 285 285 284 284 283 283 283 284 284 284 285 286 287 287 287 286 284 283 282 283 283 281 281 281 282 280 279 279 279 280 279 279 279 279 278 279 280 277 277 275 276 276 275 275 277 279 279 279 280 282 283 283 284 284 284 284 284 284 284 285 285 285 285 285 285 285 285 285
285 285 285 285 284 284 284 284 284 283 283 283 282 283 283 283 283 283 283 284 284 284 284 283 283 284 283 283 282 282 282 281 281 281 280 280 280 279 279 278 278 277 278 277 277 272 276 277 275 275 276 279 278 278 280 281 282 282 283 283 283 284 284 284 284 284 284 285 285 285 285 285 285 285
286 286 285 285 284 284 284 285 287 286 284 282 282 281 282 282 283 283 284 286 286 284 284 283 283 283 283 285 282 282 282 282 282 281 280 279 278 277 276 274 276 274 277 277 275 274 274 276 275 275 277 277 276 277 277 280 281 282 282 283 283 283 283 283 284 284 284 284 284 284 284 284 284 284
286 286 286 285 285 284 284 286 287 287 286 282 281 281 280 281 281 282 283 285 286 287 286 285 285 285 286 286 286 286 286 283 282 279 277 276 277 275 274 274 274 273 276 276 276 275 273 275 274 274 275 276 276 276 276 277 279 280 281 282 282 283 283 283 283 283 284 284 284 284 284 284 284 283
286 286 286 285 285 284 284 286 287 287 286 282 281 281 280 280 280 281 282 282 283 286 285 284 284 285 285 286 286 286 286 285 283 278 276 276 276 275 275 273 274 274 275 274 276 273 272 275 275 273 275 275 275 275 276 277 277 279 279 280 281 282 282 282 282 283 283 283 283 283 284 283 283 281
285 285 286 285 285 285 285 286 287 287 286 283 282 281 280 279 279 280 281 280 280 281 280 280 281 281 284 283 283 284 285 285 283 280 279 278 276 275 275 274 273 271 272 275 276 271 272 272 273 273 271 270 274 276 275 276 277 278 278 278 277 279 279 280 281 281 282 282 283 283 283 283 282 279
284 285 285 286 287 288 288 287 286 286 287 283 282 282 280 279 279 281 280 280 280 280 279 279 280 279 281 281 281 282 282 282 280 279 279 278 277 276 275 274 273 271 272 275 276 272 273 274 271 275 272 269 267 273 275 275 276 276 277 277 275 277 278 278 278 280 281 281 282 282 283 282 282 278
283 283 284 284 286 287 288 287 286 286 286 286 283 282 280 280 281 282 279 279 281 279 279 279 279 279 280 280 280 280 280 280 279 278 279 277 277 277 275 273 273 271 273 275 278 273 271 273 270 273 270 270 268 269 271 273 274 275 276 275 274 275 275 275 276 275 277 279 280 281 281 281 282 280
282 283 284 284 285 286 287 287 287 286 286 286 284 283 284 284 284 282 280 280 280 279 278 278 278 278 278 278 278 278 279 278 278 277 276 277 276 277 276 275 273 270 270 275 278 273 271 271 270 270 269 269 267 270 268 270 273 273 274 274 274 274 275 275 275 274 275 275 275 277 277 280 280 281
282 283 283 284 285 286 286 286 287 287 286 285 284 286 286 285 284 283 280 279 278 278 277 277 276 277 277 277 277 276 276 276 277 276 275 275 275 275 274 274 274 273 274 275 275 273 272 270 273 269 268 270 266 267 269 268 269 273 272 273 274 274 275 274 274 274 275 275 275 278 279 280 281 281
282 282 283 284 286 286 285 285 286 286 286 284 285 286 286 285 284 282 280 278 278 277 277 276 276 276 276 276 276 275 274 273 273 273 274 273 273 273 273 273 273 274 274 274 274 273 272 270 270 271 270 269 267 265 265 270 270 271 270 273 273 274 274 274 274 274 275 275 275 275 274 274 275 275
282 284 285 285 286 285 285 285 285 285 285 285 285 285 285 284 282 281 279 278 277 276 276 275 275 275 276 276 275 274 273 273 273 272 272 272 273 272 272 272 271 272 272 272 273 272 272 270 269 270 269 268 267 267 268 267 269 269 271 270 269 272 273 274 274 273 274 274 274 274 273 274 273 275
284 285 285 285 285 285 284 283 282 282 282 284 284 284 284 283 282 280 279 278 277 276 276 276 275 275 275 275 274 274 273 272 270 271 270 269 269 269 268 267 267 268 269 270 271 271 271 271 270 270 268 268 268 267 268 267 267 269 270 269 270 272 272 272 272 273 273 273 273 273 274 274 274 274
282 283 283 283 284 284 284 283 283 283 283 282 282 282 282 282 282 280 279 277 277 276 276 275 275 274 274 274 273 271 271 270 270 270 269 268 267 267 267 266 265 265 267 268 269 270 270 270 270 270 267 267 268 268 268 268 266 267 269 270 270 267 270 272 272 272 273 273 273 273 273 273 273 276
280 281 282 283 282 283 281 281 281 280 280 280 280 280 281 281 281 281 280 279 278 277 277 276 274 273 272 271 271 271 270 269 269 269 268 268 267 267 266 264 264 265 265 266 267 269 270 270 270 270 269 268 266 267 268 267 266 267 267 269 269 270 271 270 270 271 272 272 271 271 272 272 272 272
279 280 279 279 280 280 279 278 278 278 279 279 279 279 280 280 280 279 278 276 276 276 275 274 272 271 271 270 270 269 269 268 268 269 267 267 266 266 266 264 265 264 264 265 265 266 268 268 270 270 269 269 269 268 267 265 266 268 267 268 269 268 269 271 271 271 272 271 270 270 270 271 272 272
278 278 278 278 278 278 278 277 277 277 277 277 278 278 279 279 279 278 277 276 276 275 274 273 271 270 270 269 269 268 268 267 266 267 267 266 266 265 264 264 265 266 266 265 266 265 267 267 267 267 267 267 267 267 267 266 265 267 268 268 268 267 269 270 271 271 271 270 269 268 268 269 270 271
277 277 277 277 277 277 277 276 276 277 277 277 277 277 278 278 278 277 276 275 275 274 273 272 270 269 269 268 268 267 266 265 265 266 266 266 265 265 265 264 265 265 265 265 266 266 267 266 266 265 265 265 265 266 270 269 266 266 267 267 268 268 268 270 270 270 270 270 270 267 267 268 268 270
277 277 276 277 276 276 276 276 277 277 277 277 277 277 277 277 277 275 274 275 274 273 272 271 269 269 268 268 267 267 266 265 264 264 264 264 264 265 265 265 265 265 265 265 265 266 266 266 266 264 263 264 263 262 265 272 271 267 266 265 267 268 268 269 270 270 269 268 269 268 265 265 267 269
277 277 277 276 276 276 275 276 276 277 277 277 277 277 276 276 274 274 274 275 273 272 271 270 269 268 267 267 267 266 265 265 263 264 263 264 264 265 264 264 265 265 265 265 266 266 267 265 266 265 264 263 262 261 264 269 272 273 268 266 266 268 268 268 267 267 268 268 268 267 267 267 267 268
277 277 277 276 276 276 276 276 276 276 277 277 276 276 276 274 273 273 273 272 271 270 270 269 268 267 267 266 265 264 264 264 264 263 264 264 263 263 263 263 263 264 264 265 265 265 266 265 265 265 264 262 261 262 262 265 265 269 273 270 267 266 267 266 265 264 265 267 267 268 268 267 267 269
278 277 277 276 276 276 276 276 276 276 276 276 275 274 273 272 272 271 271 270 269 269 269 268 267 267 266 266 265 265 264 264 263 263 264 263 264 263 263 263 263 264 264 263 265 265 265 265 265 265 264 263 262 261 262 261 262 265 269 273 270 266 265 266 264 265 265 265 266 268 268 269 271 273
278 278 278 277 277 276 276 276 276 276 276 275 274 273 272 271 270 270 269 269 268 268 268 267 266 266 266 265 265 265 264 264 264 264 264 264 264 264 264 264 263 264 263 263 263 264 265 265 266 265 265 265 264 264 264 263 264 265 265 268 272 270 267 267 265 264 264 266 267 266 265 267 265 267
278 277 278 278 277 276 276 276 276 276 274 274 273 272 271 270 269 269 269 268 267 267 266 266 266 265 265 265 264 264 263 263 264 264 264 263 264 264 264 264 263 264 263 262 263 264 264 266 268 270 267 265 264 264 262 260 260 262 263 265 270 272 273 272 269 267 265 267 266 264 264 263 264 265
278 278 278 278 277 276 276 276 276 274 273 272 271 270 269 268 268 270 269 268 267 267 266 265 265 265 264 264 264 264 263 263 263 263 263 263 263 263 264 263 262 264 263 262 264 264 267 268 267 266 264 264 263 262 260 260 260 261 262 263 264 269 271 272 272 272 269 268 265 264 264 264 265 263
278 278 278 276 277 276 276 275 274 273 271 271 269 268 267 267 267 268 266 266 266 265 265 265 264 264 264 264 264 264 263 263 263 263 263 263 263 262 262 263 263 264 264 263 265 266 266 267 266 264 264 264 263 263 260 261 261 261 262 262 263 263 266 270 271 272 272 273 272 270 267 265 263 261
278 278 276 276 276 276 275 274 273 272 270 269 268 268 267 266 266 266 266 265 265 264 264 264 264 263 263 263 263 263 263 263 263 263 263 263 263 263 263 263 263 264 264 264 264 264 264 264 264 265 263 263 263 262 261 261 261 262 262 262 262 261 262 263 265 268 270 271 271 271 272 272 272 271
277 276 275 275 274 274 273 272 271 270 269 268 268 267 266 266 265 265 265 265 264 264 264 264 263 263 263 263 263 262 263 265 264 263 263 263 263 264 264 264 263 263 263 264 263 263 264 264 264 265 264 263 263 262 262 262 261 262 262 261 261 262 262 262 262 262 263 263 267 270 271 271 272 272
Wind_Speed
13 13 14 14 12 11 10 9 9 8 8 7 7 8 10 8 9 6 8 9 7 8 10 7 9 10 9 8 8 9 8 10 12 8 8 6 6 12 11 8 7 9 9 9 9 8 8 9 8 8 7 7 6 7 7 5 5 5 5 6 6 6 6 6 6 7 8 8 8 8 8 8 9 10
11 13 12 12 12 11 10 11 10 10 10 8 8 9 8 8 11 8 8 8 8 6 8 6 7 10 10 9 8 8 8 14 13 9 8 6 5 12 11 8 8 9 11 10 10 10 10 10 9 9 8 7 7 7 7 6 6 6 6 6 7 6 6 7 7 7 8 8 9 8 9 9 9 10
11 12 14 13 12 11 11 11 10 10 10 9 8 8 8 8 10 10 7 6 4 9 10 8 7 11 10 8 8 7 7 11 13 8 6 6 7 10 6 8 9 11 12 11 11 11 10 10 10 10 9 8 8 8 8 7 6 6 6 7 7 6 6 7 7 8 8 8 9 9 9 9 9 9
11 13 14 14 13 12 11 11 10 10 11 10 9 9 9 9 9 8 8 10 3 1 5 7 7 11 11 9 9 8 5 8 13 7 6 6 9 4 3 8 11 12 13 12 11 11 11 11 11 10 9 9 9 9 8 8 7 7 7 7 7 7 7 8 8 8 8 9 9 9 9 9 9 9
12 13 14 14 14 12 13 12 10 11 11 10 10 9 9 10 9 9 10 10 5 1 2 5 6 9 10 8 8 9 7 7 8 7 5 6 5 4 3 3 9 13 12 12 12 11 11 11 11 11 10 10 10 9 9 9 8 8 8 8 8 8 8 8 8 8 9 9 9 9 9 9 9 10
11 12 15 16 14 11 13 13 13 12 11 11 11 11 10 10 9 9 9 10 8 6 3 4 5 7 8 8 8 10 9 8 7 7 5 4 4 4 3 3 3 12 12 12 11 11 12 12 12 12 11 11 10 10 10 9 9 9 9 8 9 8 9 9 9 9 9 9 10 9 9 9 9 10
12 13 15 16 14 10 13 14 14 12 13 12 13 14 11 12 11 10 10 9 10 8 7 6 8 8 8 8 10 9 7 6 7 8 6 5 4 3 4 3 3 9 13 13 12 12 13 13 13 13 13 11 11 11 10 10 9 9 9 9 9 9 8 9 9 9 9 10 10 9 9 9 9 10
13 14 14 15 14 12 14 15 14 13 13 13 13 14 13 12 12 10 9 11 10 6 9 7 8 8 9 7 6 6 5 7 7 6 5 4 4 4 4 4 4 7 13 13 13 13 13 14 13 14 13 12 12 11 11 11 10 10 10 10 9 9 9 9 9 9 10 10 10 9 9 9 10 11
13 14 15 15 12 12 14 15 14 13 14 13 12 13 13 12 12 9 10 11 10 7 9 7 5 7 6 5 6 8 9 6 5 4 6 6 5 5 5 4 5 8 12 14 14 13 14 14 15 14 13 13 13 12 12 11 11 11 11 10 9 9 9 9 9 10 10 10 10 10 10 10 11 11
13 14 14 14 12 13 15 16 14 13 14 12 12 14 13 12 11 11 10 10 10 10 6 10 7 8 9 8 7 10 10 9 8 6 5 4 5 5 5 5 4 4 4 4 6 11 13 15 16 15 14 14 13 13 12 12 12 11 11 10 9 9 8 9 9 10 10 11 11 11 11 11 12 12
13 15 15 14 13 15 16 16 15 14 13 12 15 15 13 12 11 11 11 10 11 11 8 7 9 9 8 9 10 9 9 7 7 8 7 6 6 5 5 6 5 5 5 8 11 9 9 11 10 12 14 14 14 14 13 12 13 12 11 10 9 9 9 9 9 10 11 11 11 11 11 11 12 13
13 13 14 15 15 15 15 15 14 13 14 12 14 13 12 11 12 12 10 10 11 11 11 9 10 9 10 8 4 6 8 8 7 8 8 8 8 8 8 7 6 6 6 6 6 8 9 9 12 13 13 15 15 14 13 13 12 12 11 10 10 10 10 9 10 10 10 11 11 11 12 12 13 14
13 13 12 13 13 15 18 20 18 16 14 11 13 13 12 12 12 12 11 10 10 10 11 9 8 9 9 10 11 10 10 14 14 11 9 8 7 6 5 6 7 6 7 6 5 7 7 6 5 5 5 6 11 11 12 9 11 11 11 11 10 10 10 10 10 10 10 11 11 12 12 13 14 15
13 13 13 12 16 17 19 21 21 20 20 20 17 12 11 12 12 13 12 12 11 11 12 12 11 11 12 13 14 13 13 10 7 9 10 9 8 7 7 5 7 7 7 7 8 7 7 7 6 6 6 4 5 3 4 5 7 8 9 9 10 10 10 10 10 10 10 11 12 12 13 13 14 15
14 13 13 12 13 15 16 17 20 20 22 22 23 22 18 15 14 13 14 14 13 13 13 12 11 13 14 14 13 12 12 11 13 12 11 10 8 9 10 10 5 8 9 8 6 6 7 7 6 4 5 5 4 5 5 9 10 10 11 10 9 9 10 10 10 10 10 11 12 13 14 14 15 17
13 13 13 13 10 11 13 13 13 18 22 23 23 23 22 21 21 21 17 15 13 13 14 13 14 13 14 14 12 11 11 12 10 10 11 12 13 11 11 9 9 7 11 9 7 6 6 6 5 5 5 5 5 6 10 12 11 11 11 10 9 9 9 10 10 11 11 12 12 13 14 15 16 18
13 12 12 12 11 10 15 13 13 13 14 19 23 23 23 24 25 24 26 24 17 14 15 15 16 16 14 13 13 14 14 12 14 13 11 12 12 11 10 10 4 8 11 8 7 7 7 7 6 6 6 6 5 6 10 12 10 9 9 9 8 7 8 9 11 12 13 13 13 14 15 16 17 18
13 13 12 13 12 11 11 10 12 12 12 11 12 15 16 16 20 24 26 26 26 20 16 16 18 15 13 14 14 14 15 16 15 13 13 13 12 12 12 7 7 7 8 9 6 3 5 6 5 5 4 4 4 4 6 9 9 9 10 9 8 8 8 9 11 13 14 15 14 14 15 17 19 20
13 13 13 14 15 13 10 11 13 12 10 9 10 12 14 16 16 16 17 19 18 17 15 15 16 12 12 15 12 12 13 15 13 13 14 13 10 6 8 7 6 5 4 4 5 7 5 5 5 5 3 2 3 3 6 8 8 8 9 9 8 8 8 9 11 13 15 16 15 15 16 18 20 21
12 13 13 14 14 14 13 15 19 16 11 9 11 14 14 14 14 15 15 15 17 18 16 16 15 12 10 11 12 13 13 11 8 8 8 8 9 10 9 9 7 5 6 7 5 4 5 5 5 4 3 2 3 4 3 6 7 7 8 9 9 8 8 9 11 13 15 16 16 16 17 18 20 22
12 13 13 14 14 15 14 14 16 17 17 11 13 14 15 14 13 15 13 13 17 12 9 12 12 11 12 14 16 18 19 14 12 11 11 12 11 11 11 8 7 7 8 8 8 5 4 5 5 3 3 3 3 3 4 3 6 7 8 9 9 8 8 9 11 13 15 17 18 18 19 19 20 23
11 13 18 16 14 15 15 17 17 19 17 14 14 14 14 15 16 16 13 8 10 13 11 12 13 13 15 17 19 20 21 21 18 16 17 14 12 13 13 13 9 5 7 7 9 4 4 4 3 2 1 1 2 4 4 4 3 5 5 7 7 8 9 10 12 15 16 18 18 19 20 20 20 13
10 12 13 18 18 16 15 17 18 22 18 14 14 14 13 16 18 17 12 10 10 10 10 11 10 10 14 13 12 13 22 23 17 14 13 12 14 14 10 9 7 4 6 8 10 7 5 6 1 4 1 1 2 2 3 2 1 1 1 1 1 5 8 11 14 16 17 17 18 19 20 20 18 9
10 11 11 13 18 23 23 20 21 23 24 17 14 13 14 16 20 10 9 11 12 13 13 12 13 14 13 12 11 11 13 14 14 9 10 12 13 12 12 11 11 6 5 9 11 6 4 5 3 3 4 1 2 1 1 2 2 1 0 1 2 6 9 11 12 16 16 16 18 19 20 21 19 10
11 11 10 10 14 20 22 23 23 24 25 24 16 15 16 17 12 10 11 15 17 14 13 13 13 12 12 12 12 13 13 12 12 10 8 6 9 11 12 11 10 3 2 7 14 6 4 6 6 4 2 2 1 1 3 3 4 2 2 3 5 5 4 5 5 6 10 15 16 18 19 19 22 16
11 13 12 11 12 18 21 24 24 25 25 27 17 16 20 19 17 14 13 11 11 13 12 11 12 12 12 12 12 12 11 10 11 10 8 7 5 6 7 11 13 9 6 10 15 6 7 6 7 6 3 4 2 2 3 4 5 4 4 4 5 5 5 5 6 7 6 5 5 9 12 18 19 21
13 11 12 13 17 17 21 23 24 24 26 23 18 23 22 20 21 19 12 12 12 12 12 12 13 13 13 12 12 11 10 8 11 9 8 8 7 7 5 5 3 5 7 9 8 6 5 5 7 8 7 5 4 2 4 3 2 3 5 5 5 5 5 5 7 7 6 6 6 14 16 18 20 23
12 12 13 13 18 17 19 23 23 23 23 17 23 25 26 26 21 14 13 14 14 13 12 13 14 14 12 11 10 11 8 7 8 9 9 8 8 8 6 7 7 6 7 8 8 6 5 6 5 5 6 6 6 6 4 5 5 4 4 5 4 5 5 6 7 7 7 7 7 6 7 8 8 10
14 16 22 20 17 16 19 23 23 21 24 29 26 25 26 23 13 13 13 14 13 14 15 15 13 12 12 12 11 9 11 11 10 9 7 7 7 7 7 6 5 5 4 4 6 7 6 6 5 5 5 5 5 5 4 3 2 4 4 4 4 4 6 7 8 8 7 6 7 8 7 7 8 8
23 24 23 26 25 18 18 15 13 12 13 22 28 28 24 15 13 12 12 12 14 15 15 13 12 11 9 9 9 11 11 11 10 10 10 10 8 9 10 9 5 4 4 3 4 5 6 5 5 5 5 5 6 6 5 4 5 4 5 7 7 6 7 8 8 8 8 8 8 8 8 8 8 8
17 19 20 16 16 13 18 19 17 16 15 13 15 14 13 13 12 12 12 13 14 13 12 11 9 8 9 9 10 11 12 10 8 10 10 10 9 9 8 7 6 5 2 2 2 4 5 5 6 7 7 6 6 7 5 4 4 5 6 6 6 6 3 4 6 7 7 8 8 8 8 8 8 10
13 12 13 17 14 12 12 13 12 12 11 11 11 11 11 12 11 12 14 13 12 12 12 11 9 9 10 12 11 10 9 9 9 9 9 10 9 8 9 7 6 5 4 4 3 4 5 6 7 6 7 6 7 6 5 6 7 6 6 6 7 8 7 8 8 8 8 8 8 8 8 8 9 9
10 9 10 10 12 11 12 11 12 11 11 11 12 12 11 11 10 9 9 13 13 11 10 11 11 11 10 10 10 10 10 9 9 8 8 7 10 8 6 5 7 7 7 6 6 5 5 4 4 6 5 5 7 6 6 7 8 7 7 7 6 8 7 8 8 8 8 8 8 8 8 8 8 9
10 11 11 12 10 11 11 12 11 11 12 11 11 11 12 11 10 10 10 11 11 10 11 11 11 11 11 11 11 11 10 8 8 8 9 9 9 10 7 9 8 6 6 6 7 7 7 6 4 3 3 3 4 4 6 7 7 6 7 6 7 8 8 7 7 8 7 8 9 9 9 8 9 9
12 11 12 12 11 9 11 8 10 10 12 12 11 11 11 11 11 10 10 10 10 11 11 11 11 12 12 13 12 12 11 11 9 8 6 7 8 7 8 7 8 8 7 7 6 7 7 7 7 5 5 5 6 8 13 12 7 8 5 7 6 7 7 6 7 7 7 9 8 10 10 10 10 10
11 11 12 9 8 10 9 13 13 11 12 12 11 10 11 11 10 10 10 10 11 11 11 11 11 11 11 11 12 11 11 11 10 9 9 6 6 7 7 7 7 7 6 6 6 6 7 7 8 8 7 6 6 5 4 20 20 8 8 7 6 6 6 6 7 7 8 8 9 9 11 12 10 9
13 12 13 9 10 12 10 12 12 13 11 11 11 11 11 10 9 9 9 11 11 11 12 11 11 11 11 10 11 11 11 12 11 9 8 8 7 8 8 8 7 7 6 5 5 6 7 7 7 7 6 5 5 7 6 1 18 21 7 6 5 5 6 6 6 7 8 10 10 10 11 12 13 11
14 13 13 12 11 11 11 11 12 11 10 9 9 9 8 7 8 9 10 11 11 10 11 11 11 11 11 11 12 11 11 9 10 10 9 10 10 9 8 8 6 6 5 6 6 6 5 6 6 7 7 7 6 6 5 3 3 8 15 10 7 6 4 6 7 8 9 8 10 11 10 11 14 13
15 14 12 12 12 10 10 11 11 11 10 8 8 8 8 8 9 9 10 11 10 11 11 11 11 12 12 12 12 13 13 11 11 8 8 8 9 9 8 6 7 6 6 6 6 6 6 6 7 7 7 7 8 4 3 2 4 2 5 12 7 5 6 7 9 8 8 10 10 10 10 11 15 24
15 13 10 10 10 10 10 10 9 9 9 8 8 8 9 10 10 10 11 11 11 10 11 11 12 12 11 11 11 10 11 11 11 10 8 9 7 7 6 7 7 8 7 7 7 7 7 7 7 7 6 5 2 0 0 2 3 4 6 10 19 14 9 6 8 8 9 9 9 10 11 9 11 11
14 14 11 8 8 8 9 9 9 8 8 8 8 8 9 9 10 11 11 11 11 12 10 10 11 12 12 12 12 14 13 10 8 7 7 6 7 6 8 8 6 7 7 7 7 7 8 7 6 8 5 1 1 1 1 3 6 5 6 7 13 17 17 15 11 9 9 9 8 10 12 12 12 13
12 12 11 8 8 8 8 9 8 8 8 8 8 9 8 7 7 12 11 13 11 10 10 11 11 10 11 11 12 10 9 7 7 7 7 8 9 8 9 7 6 7 7 7 8 6 4 4 4 3 2 2 1 3 6 7 7 6 4 4 4 9 14 16 18 18 13 10 9 10 11 11 9 12
10 10 9 6 8 8 8 9 9 9 9 9 9 9 9 9 9 10 8 9 9 9 10 10 10 11 11 12 13 14 9 6 6 7 9 8 8 8 7 7 6 6 6 4 3 4 4 3 4 4 3 3 5 6 7 7 6 6 5 5 5 4 5 11 16 20 22 23 21 17 13 12 11 15
10 8 5 6 7 7 7 8 9 9 10 10 10 10 10 10 10 10 10 10 11 11 10 10 10 11 12 14 13 10 10 10 10 9 9 9 7 7 7 6 6 5 5 4 3 3 3 2 2 4 5 6 6 6 8 6 7 7 6 6 4 3 6 5 8 13 16 18 21 22 26 26 23 27
5 6 6 6 6 6 7 7 9 9 10 10 10 10 9 9 9 9 9 9 9 10 11 11 11 11 13 13 13 12 10 12 10 9 8 7 6 6 6 6 6 6 5 5 5 4 5 4 5 5 5 5 5 5 7 7 8 7 7 7 8 6 5 5 7 9 9 9 11 19 22 24 26 28
Wind_Direction
223 227 225 227 229 223 222 224 221 219 218 215 213 209 208 199 216 196 206 208 193 192 174 171 193 183 184 179 181 180 175 158 162 182 196 193 173 176 174 174 197 214 217 219 222 224 229 237 238 241 244 247 254 259 261 267 282 290 300 296 296 297 308 311 315 325 327 323 321 323 324 324 326 330
225 229 230 230 234 230 224 227 223 224 222 219 218 221 218 207 219 217 208 223 187 180 190 179 160 183 184 179 180 177 183 158 167 182 197 183 189 168 172 180 207 217 220 219 219 220 225 231 235 238 244 249 253 261 267 269 275 282 289 298 295 295 301 308 310 313 313 313 314 315 317 321 326 328
225 228 230 229 232 229 230 230 227 226 223 223 222 225 220 219 223 226 226 243 193 164 182 193 162 169 179 178 170 168 184 159 174 182 180 184 169 153 171 195 220 227 223 218 219 220 225 230 232 236 242 246 252 259 262 270 277 284 288 288 288 291 295 298 299 300 305 309 312 313 317 322 327 330
227 229 231 228 226 224 227 231 227 224 223 221 223 223 221 224 222 219 228 236 214 158 167 173 150 162 169 172 169 174 167 162 178 180 173 164 134 158 193 213 223 226 224 221 218 221 224 228 231 234 237 240 250 259 267 271 278 283 281 276 275 282 285 286 291 296 302 307 310 312 316 322 327 330
227 230 232 231 228 222 224 227 224 225 221 219 226 224 223 225 218 213 222 229 210 32 93 145 148 158 156 170 177 171 165 158 184 188 175 167 157 165 200 206 215 220 224 223 222 224 228 230 232 234 234 238 246 254 258 264 268 270 271 272 273 278 283 288 295 304 310 310 307 308 314 321 327 328
224 227 233 236 232 224 228 229 225 223 219 218 221 223 219 224 221 211 217 226 216 173 146 129 121 149 168 168 175 180 177 172 174 183 181 171 157 170 171 214 216 216 221 226 227 230 231 234 234 233 234 237 242 245 250 255 260 265 272 277 281 286 292 297 301 305 305 304 305 306 312 319 321 321
230 231 233 233 229 223 227 230 230 226 221 216 217 220 215 221 220 212 212 215 223 180 183 157 155 166 178 183 178 182 184 167 170 176 185 175 170 165 186 199 223 223 217 223 227 230 235 238 239 237 234 237 239 243 247 253 258 266 272 277 283 286 291 295 299 302 305 303 301 304 308 312 314 314
234 234 235 235 229 224 230 232 228 226 223 219 218 218 216 218 219 213 207 215 220 186 168 179 173 172 167 185 163 170 164 165 174 177 166 168 174 173 190 207 214 224 221 221 225 231 236 240 241 238 239 240 241 242 247 251 257 263 269 275 280 283 286 292 298 300 299 297 294 297 303 307 310 313
237 237 237 239 229 224 231 235 229 226 222 223 221 222 219 215 215 208 204 211 212 195 183 163 167 156 162 164 157 165 166 165 165 166 175 176 176 188 191 196 217 227 225 223 227 232 237 242 244 243 241 242 243 246 250 255 259 264 269 272 275 279 284 290 293 292 289 288 290 295 303 307 311 314
240 242 241 240 233 228 229 235 233 229 225 224 224 226 224 218 212 208 207 205 208 210 191 167 153 169 165 170 177 174 170 169 166 171 180 178 186 183 197 203 198 200 209 206 224 232 236 241 242 240 240 241 245 247 252 257 262 266 268 268 270 273 277 280 282 284 284 286 292 300 305 308 310 312
242 241 242 242 235 234 234 237 235 231 229 226 227 226 224 220 215 213 208 199 201 207 190 181 175 165 178 176 173 172 172 177 177 172 167 196 193 193 195 209 196 191 204 216 218 217 215 222 226 232 234 238 243 249 256 263 266 267 265 265 265 265 267 270 271 276 282 287 292 297 300 305 312 313
245 241 241 241 238 237 239 238 237 228 229 226 231 229 224 219 216 216 210 201 202 203 200 186 180 175 168 173 158 142 162 174 192 194 183 183 184 197 199 205 194 188 193 207 209 220 218 221 222 221 227 235 243 251 260 264 265 264 262 261 260 259 258 261 268 275 282 289 292 296 302 309 314 315
250 248 244 240 237 236 237 236 235 232 227 226 230 228 218 216 213 215 213 206 204 206 205 195 178 172 177 181 168 170 179 191 190 178 182 199 194 182 186 204 201 186 190 203 203 203 202 211 215 208 216 229 238 246 247 251 254 251 253 251 249 252 259 265 272 277 284 290 294 299 308 314 315 313
257 253 249 242 241 238 235 234 234 234 233 231 230 228 212 209 213 213 212 210 208 206 207 204 187 187 196 188 188 186 192 182 158 172 181 189 187 164 196 199 198 186 184 193 207 202 185 198 205 197 202 206 209 202 214 209 211 217 228 248 260 265 267 271 277 284 290 295 300 305 312 315 314 311
266 262 256 253 245 239 239 238 235 232 232 234 234 232 224 213 209 209 212 215 206 204 211 209 201 203 203 197 191 189 177 176 184 182 183 182 172 175 176 200 182 188 180 200 202 204 186 181 201 207 204 202 193 202 209 215 215 226 240 251 262 268 273 277 282 287 293 297 302 308 312 314 313 310
262 262 263 261 256 242 240 238 234 233 231 230 231 231 229 226 219 214 211 211 211 208 212 211 213 209 209 196 185 183 172 180 182 187 185 188 189 182 195 200 195 179 173 189 197 202 160 168 201 217 210 202 204 208 208 212 221 234 245 256 264 272 276 280 286 291 295 298 303 309 313 314 313 312
258 260 261 263 256 252 241 233 232 233 232 230 228 228 230 229 227 224 221 220 216 207 213 214 216 212 205 196 197 190 181 173 182 183 183 189 196 197 199 204 146 155 169 178 194 192 172 169 198 217 211 192 199 212 220 223 227 237 249 260 267 274 281 285 289 293 296 300 305 310 312 312 311 310
255 255 258 261 259 253 244 237 234 231 229 226 225 228 227 228 231 230 228 226 224 219 217 218 223 216 196 203 201 188 178 178 186 181 188 185 186 192 196 167 130 145 167 183 171 171 187 166 189 223 218 174 197 206 222 230 245 256 262 268 271 273 276 284 291 296 299 300 302 306 311 313 311 308
252 252 252 254 258 255 241 239 238 232 228 224 222 223 225 226 225 223 226 226 226 224 225 228 231 223 201 209 200 180 186 190 191 190 188 180 176 141 92 87 123 129 166 178 177 184 168 167 185 217 204 186 194 217 241 252 256 264 270 272 272 268 271 279 288 293 294 295 300 306 311 311 306 301
250 249 247 251 253 252 248 244 238 230 223 217 220 225 228 229 228 229 225 223 223 225 223 224 224 224 206 190 180 179 176 176 152 117 107 109 131 140 151 164 163 162 178 179 188 164 174 184 175 195 152 189 223 224 208 256 269 274 277 276 269 262 261 272 285 291 294 297 301 305 305 303 298 296
253 248 243 244 250 250 248 238 227 219 214 219 219 223 227 228 229 234 227 214 218 214 207 213 213 207 191 183 175 177 172 168 154 142 145 171 161 157 175 185 172 189 178 183 193 179 165 185 165 180 201 207 251 249 248 242 277 284 280 275 270 265 267 278 289 294 296 297 298 299 298 294 293 293
255 250 244 237 245 250 249 242 219 218 209 221 223 224 225 229 233 235 226 215 215 196 188 187 189 186 186 184 181 180 176 167 160 166 183 175 157 181 188 184 182 168 175 189 175 167 189 140 149 138 248 194 243 246 258 272 288 294 288 279 271 271 280 291 294 293 292 292 292 291 289 289 290 291
257 259 251 240 241 247 248 238 223 219 211 220 222 225 224 230 233 232 212 204 205 200 199 202 187 196 189 187 182 185 179 172 174 185 179 162 173 182 181 167 125 161 227 188 176 152 186 125 198 122 63 321 256 193 260 287 295 253 207 331 323 302 299 295 292 287 285 285 284 283 283 285 287 284
260 258 259 246 238 244 244 236 227 222 215 216 222 221 226 229 235 216 189 199 202 204 201 202 201 202 195 188 185 184 182 178 178 173 164 171 174 177 174 176 179 175 176 168 175 150 156 129 135 144 150 138 269 60 29 284 275 224 183 313 292 293 294 290 286 282 281 282 280 279 278 280 280 275
262 262 257 254 238 234 235 233 224 221 221 218 217 219 226 226 227 184 193 205 192 200 201 200 200 200 197 195 194 190 185 181 176 169 158 147 169 172 171 173 182 152 148 168 168 140 150 139 145 131 121 139 236 339 275 291 288 294 304 294 283 282 274 271 269 273 278 278 278 277 277 275 273 269
255 255 257 257 241 232 232 233 227 223 221 221 220 221 225 224 210 194 203 199 195 202 203 199 198 196 196 195 192 190 186 177 170 164 149 145 131 162 175 177 172 162 168 170 163 152 136 138 159 140 147 155 245 219 277 281 271 266 272 265 261 265 260 266 270 272 270 262 259 266 267 267 267 269
252 253 254 255 250 234 223 227 227 226 224 223 225 226 225 221 203 199 203 200 199 201 199 198 202 196 195 191 191 182 173 163 158 151 133 130 130 141 106 98 100 115 132 145 143 146 133 123 143 151 161 164 162 222 217 240 269 261 257 250 242 248 248 257 267 267 267 270 263 272 274 273 273 273
250 253 252 251 250 233 220 224 227 227 226 224 228 230 233 229 216 201 206 204 204 198 196 201 201 198 192 184 179 171 151 136 135 130 129 126 130 124 118 113 103 126 130 138 149 151 137 133 134 144 156 172 173 188 210 233 232 255 270 280 274 267 262 260 266 268 269 265 265 263 261 261 258 267
248 246 250 255 253 232 222 223 225 228 228 229 229 228 230 227 216 211 204 205 196 199 200 201 199 193 188 183 171 143 137 132 125 128 128 117 115 112 98 95 94 91 99 125 145 155 147 145 148 151 159 182 182 211 194 217 202 230 241 281 278 257 258 254 254 260 261 262 264 258 251 255 261 260
246 250 252 253 254 230 218 221 222 225 227 230 233 234 232 225 215 208 205 199 200 204 201 195 191 190 173 166 160 154 144 146 156 150 141 136 132 130 127 107 88 75 73 89 114 140 149 156 158 167 165 186 198 202 212 201 230 224 232 235 254 282 262 257 261 262 262 260 258 263 262 254 256 259
249 251 252 252 246 232 225 220 222 225 226 225 225 227 226 226 219 206 202 200 200 203 196 190 177 170 161 149 146 160 163 154 148 152 145 142 145 140 143 121 126 123 118 122 154 167 169 179 183 188 182 195 201 208 210 214 220 228 236 237 230 234 241 248 260 259 267 268 267 263 261 259 257 253
242 246 252 253 251 237 227 225 221 222 219 217 217 216 217 220 220 210 202 196 200 197 191 179 158 152 160 164 166 157 155 153 154 153 150 148 143 143 138 114 148 138 145 159 176 194 194 195 196 202 196 196 197 205 195 215 224 228 240 239 243 252 253 257 261 260 256 263 268 264 261 259 258 253
236 237 241 244 238 229 221 217 218 217 215 213 212 210 211 213 212 203 189 196 197 187 171 170 161 162 156 159 157 156 154 156 153 154 141 143 142 141 132 119 155 153 163 173 171 182 184 197 219 216 213 211 208 203 198 217 226 222 231 237 242 253 253 250 252 259 265 267 267 268 265 258 256 258
230 230 234 232 221 217 214 215 213 210 210 212 211 211 206 205 206 200 195 193 189 171 171 162 153 161 160 158 161 160 157 142 147 150 148 147 145 146 152 156 171 160 160 164 166 169 173 176 189 214 256 263 279 246 222 221 230 216 224 229 234 251 252 255 255 255 260 260 270 272 266 265 262 258
231 231 233 229 215 206 207 194 198 197 207 207 206 204 202 203 201 194 187 186 177 168 163 164 161 163 163 166 164 161 155 151 147 140 134 134 145 145 150 150 163 162 163 165 163 162 162 170 173 183 204 216 230 246 227 223 225 227 225 233 235 245 255 255 256 258 262 268 264 268 274 266 265 258
230 227 233 221 207 206 205 208 205 197 207 210 205 201 199 200 194 184 183 174 168 167 163 161 163 164 167 165 162 159 154 151 146 143 145 140 143 150 160 161 164 158 160 159 159 162 164 175 177 182 185 197 203 237 253 214 207 208 214 234 229 236 249 253 260 264 266 266 263 266 270 273 262 254
233 222 225 218 212 214 206 207 202 207 210 209 204 201 198 192 177 174 164 157 164 167 164 160 163 165 162 161 158 156 153 155 146 143 142 151 147 156 152 162 160 160 154 166 162 169 172 178 189 183 182 190 204 223 236 84 203 206 193 220 238 242 248 253 256 262 257 262 267 259 264 273 275 267
229 224 215 217 220 221 216 210 206 208 210 203 201 195 189 169 156 154 147 158 161 158 158 163 164 158 160 158 156 155 154 149 138 144 151 153 155 162 161 154 149 156 151 163 170 181 187 179 193 187 186 192 197 220 227 205 133 217 213 223 235 247 247 265 260 260 266 258 261 267 267 266 274 278
228 222 218 218 222 218 213 207 205 209 204 194 187 179 162 153 151 148 154 158 158 158 160 160 162 161 159 163 162 159 156 154 152 144 146 153 156 154 147 142 143 153 152 168 177 181 194 190 198 196 194 195 201 210 162 185 225 212 244 244 250 254 251 250 260 259 262 272 268 264 258 261 270 278
230 224 218 216 218 210 207 201 203 204 195 185 178 168 162 159 158 155 156 157 158 161 160 160 158 156 157 158 155 151 146 147 147 150 141 146 139 137 133 147 149 157 158 173 181 187 198 201 202 197 203 203 212 162 98 229 253 248 244 249 247 246 242 242 253 258 262 260 275 283 282 282 280 283
228 224 219 213 212 196 199 194 196 188 179 169 162 159 160 157 157 162 160 159 156 157 157 157 156 157 157 155 158 155 151 141 128 124 126 118 131 133 146 147 148 167 163 180 183 193 196 204 196 202 182 144 110 50 338 262 249 236 227 229 230 243 250 253 258 262 267 275 280 280 287 292 296 296
226 220 220 204 201 193 186 189 177 168 161 159 153 149 144 144 152 155 155 159 152 151 148 151 152 150 152 154 152 138 134 124 127 125 129 137 146 149 158 155 158 169 172 182 186 192 190 168 162 176 120 137 162 211 231 230 251 251 233 221 216 249 259 265 268 270 276 283 288 288 291 293 293 287
216 210 211 179 186 186 186 178 167 155 152 148 142 139 137 144 150 152 142 145 147 146 147 149 151 150 153 149 136 139 124 102 108 123 134 142 145 149 160 165 171 172 168 172 166 157 175 170 160 157 178 203 221 222 239 244 249 262 262 250 240 214 237 264 274 276 279 278 276 275 278 284 298 289
212 207 166 155 173 177 170 160 152 151 145 145 142 146 154 154 156 157 154 154 155 153 149 148 149 150 148 140 124 126 133 133 134 136 142 147 149 149 152 157 161 169 161 165 168 168 173 180 196 188 202 218 214 221 241 251 259 258 267 269 259 252 264 255 259 269 272 272 275 278 276 272 268 269
167 140 133 140 142 137 140 144 142 141 140 140 149 152 149 147 151 148 147 149 146 145 146 148 146 148 127 126 133 110 137 144 135 130 133 134 135 145 146 155 156 164 168 173 168 188 188 191 203 202 212 224 228 232 247 250 260 271 269 273 277 268 261 272 280 282 278 275 262 269 275 277 277 277